TimeEST,TemperatureF,Dew PointF,Humidity,Sea Level PressureIn,VisibilityMPH,Wind Direction,Wind SpeedMPH,Gust SpeedMPH,PrecipitationIn,Events,Conditions,WindDirDegrees,DateUTC
12:15 AM,46.4,30.2,53,30.35,10.0,NNE,3.5,-,N/A,,Mostly Cloudy,20,2012-11-18 05:15:00
12:35 AM,46.4,30.2,53,30.35,10.0,NNE,4.6,-,N/A,,Mostly Cloudy,20,2012-11-18 05:35:00
12:55 AM,46.4,30.2,53,30.34,10.0,NNE,3.5,-,N/A,,Overcast,20,2012-11-18 05:55:00
1:15 AM,46.4,32.0,57,30.34,10.0,Calm,Calm,-,N/A,,Overcast,0,2012-11-18 06:15:00
1:35 AM,48.2,32.0,54,30.33,10.0,NNE,4.6,-,N/A,,Overcast,20,2012-11-18 06:35:00
1:55 AM,48.2,32.0,54,30.33,10.0,NNE,3.5,-,N/A,,Overcast,20,2012-11-18 06:55:00
2:15 AM,48.2,32.0,54,30.33,10.0,NNE,3.5,-,N/A,,Overcast,20,2012-11-18 07:15:00
2:35 AM,48.2,32.0,54,30.33,10.0,NNE,4.6,-,N/A,,Overcast,20,2012-11-18 07:35:00
2:55 AM,50.0,32.0,50,30.33,10.0,North,3.5,-,N/A,,Overcast,360,2012-11-18 07:55:00
3:15 AM,48.2,32.0,54,30.33,10.0,North,3.5,-,N/A,,Overcast,10,2012-11-18 08:15:00
3:35 AM,46.4,32.0,57,30.33,10.0,North,3.5,-,N/A,,Scattered Clouds,10,2012-11-18 08:35:00
3:55 AM,46.4,32.0,57,30.33,10.0,North,3.5,-,N/A,,Clear,10,2012-11-18 08:55:00
4:15 AM,46.4,32.0,57,30.33,10.0,Calm,Calm,-,N/A,,Clear,0,2012-11-18 09:15:00
4:35 AM,44.6,32.0,61,30.34,10.0,Calm,Calm,-,N/A,,Clear,0,2012-11-18 09:35:00
4:55 AM,44.6,32.0,61,30.34,10.0,North,3.5,-,N/A,,Clear,10,2012-11-18 09:55:00
5:15 AM,44.6,32.0,61,30.34,10.0,NNE,4.6,-,N/A,,Scattered Clouds,30,2012-11-18 10:15:00
5:35 AM,46.4,32.0,57,30.34,10.0,NE,4.6,-,N/A,,Mostly Cloudy,40,2012-11-18 10:35:00
5:55 AM,48.2,32.0,54,30.34,10.0,NE,5.8,-,N/A,,Overcast,40,2012-11-18 10:55:00
6:15 AM,48.2,33.8,58,30.34,10.0,NE,6.9,-,N/A,,Overcast,40,2012-11-18 11:15:00
6:35 AM,46.4,33.8,62,30.35,10.0,NE,5.8,-,N/A,,Mostly Cloudy,40,2012-11-18 11:35:00
6:55 AM,46.4,33.8,62,30.35,10.0,Calm,Calm,-,N/A,,Scattered Clouds,0,2012-11-18 11:55:00
7:15 AM,46.4,33.8,62,30.36,10.0,North,3.5,-,N/A,,Scattered Clouds,360,2012-11-18 12:15:00
7:35 AM,46.4,33.8,62,30.36,10.0,North,3.5,-,N/A,,Mostly Cloudy,10,2012-11-18 12:35:00
7:55 AM,48.2,35.6,62,30.36,10.0,NNE,3.5,-,N/A,,Scattered Clouds,20,2012-11-18 12:55:00
8:15 AM,50.0,35.6,58,30.37,10.0,North,4.6,-,N/A,,Scattered Clouds,10,2012-11-18 13:15:00
8:35 AM,51.8,35.6,54,30.37,10.0,NNE,9.2,-,N/A,,Clear,30,2012-11-18 13:35:00
8:55 AM,53.6,35.6,51,30.36,10.0,NE,8.1,-,N/A,,Clear,40,2012-11-18 13:55:00
9:15 AM,53.6,37.4,54,30.37,10.0,NNE,10.4,-,N/A,,Scattered Clouds,30,2012-11-18 14:15:00
9:35 AM,55.4,37.4,51,30.36,10.0,NE,8.1,-,N/A,,Scattered Clouds,50,2012-11-18 14:35:00
9:55 AM,57.2,37.4,48,30.37,10.0,NE,13.8,19.6,N/A,,Clear,40,2012-11-18 14:55:00
10:15 AM,57.2,37.4,48,30.37,10.0,NNE,10.4,-,N/A,,Clear,30,2012-11-18 15:15:00
10:35 AM,59.0,37.4,45,30.36,10.0,ENE,9.2,16.1,N/A,,Clear,60,2012-11-18 15:35:00
10:55 AM,60.8,39.2,45,30.36,10.0,ENE,10.4,-,N/A,,Clear,70,2012-11-18 15:55:00
11:15 AM,60.8,37.4,42,30.35,10.0,NE,10.4,-,N/A,,Clear,40,2012-11-18 16:15:00
11:35 AM,60.8,37.4,42,30.34,10.0,NE,11.5,-,N/A,,Clear,40,2012-11-18 16:35:00
11:55 AM,60.8,39.2,45,30.33,10.0,NE,8.1,-,N/A,,Clear,40,2012-11-18 16:55:00
12:15 PM,62.6,41.0,45,30.33,10.0,NE,12.7,17.3,N/A,,Clear,50,2012-11-18 17:15:00
12:35 PM,64.4,41.0,42,30.31,10.0,ENE,9.2,-,N/A,,Clear,60,2012-11-18 17:35:00
12:55 PM,64.4,39.2,40,30.31,10.0,NNE,6.9,16.1,N/A,,Clear,30,2012-11-18 17:55:00
1:15 PM,64.4,41.0,42,30.30,10.0,NNE,8.1,16.1,N/A,,Clear,20,2012-11-18 18:15:00
1:35 PM,64.4,41.0,42,30.29,10.0,NNE,6.9,-,N/A,,Clear,20,2012-11-18 18:35:00
1:55 PM,64.4,41.0,42,30.28,10.0,NNE,6.9,-,N/A,,Clear,20,2012-11-18 18:55:00
2:15 PM,64.4,41.0,42,30.27,10.0,NNE,4.6,-,N/A,,Clear,20,2012-11-18 19:15:00
2:35 PM,66.2,41.0,40,30.27,10.0,NE,5.8,-,N/A,,Clear,50,2012-11-18 19:35:00
2:55 PM,66.2,42.8,43,30.27,10.0,NE,10.4,-,N/A,,Clear,50,2012-11-18 19:55:00
3:15 PM,66.2,42.8,43,30.28,10.0,NE,12.7,17.3,N/A,,Scattered Clouds,40,2012-11-18 20:15:00
3:35 PM,64.4,42.8,45,30.28,10.0,NNE,11.5,-,N/A,,Mostly Cloudy,30,2012-11-18 20:35:00
3:55 PM,64.4,44.6,49,30.28,10.0,ENE,11.5,-,N/A,,Scattered Clouds,60,2012-11-18 20:55:00
4:15 PM,64.4,42.8,45,30.27,10.0,NE,9.2,-,N/A,,Scattered Clouds,40,2012-11-18 21:15:00
4:35 PM,62.6,42.8,48,30.28,10.0,North,5.8,-,N/A,,Clear,10,2012-11-18 21:35:00
4:55 PM,62.6,42.8,48,30.28,10.0,NNE,4.6,-,N/A,,Clear,30,2012-11-18 21:55:00
5:15 PM,60.8,44.6,55,30.28,10.0,NNE,3.5,-,N/A,,Clear,20,2012-11-18 22:15:00
5:35 PM,59.0,44.6,59,30.29,10.0,North,3.5,-,N/A,,Clear,10,2012-11-18 22:35:00
5:55 PM,59.0,44.6,59,30.30,10.0,North,3.5,-,N/A,,Clear,10,2012-11-18 22:55:00
6:15 PM,57.2,44.6,63,30.31,10.0,Calm,Calm,-,N/A,,Clear,0,2012-11-18 23:15:00
6:35 PM,57.2,44.6,63,30.31,10.0,Calm,Calm,-,N/A,,Scattered Clouds,0,2012-11-18 23:35:00
6:55 PM,55.4,44.6,67,30.31,10.0,Calm,Calm,-,N/A,,Mostly Cloudy,0,2012-11-18 23:55:00
7:15 PM,55.4,46.4,72,30.31,10.0,NW,4.6,-,N/A,,Overcast,320,2012-11-19 00:15:00
7:35 PM,55.4,44.6,67,30.31,10.0,North,3.5,-,N/A,,Overcast,350,2012-11-19 00:35:00
7:55 PM,57.2,44.6,63,30.32,10.0,North,4.6,-,N/A,,Overcast,360,2012-11-19 00:55:00
8:15 PM,59.0,44.6,59,30.32,10.0,North,5.8,-,N/A,,Overcast,360,2012-11-19 01:15:00
8:35 PM,59.0,44.6,59,30.32,10.0,NNE,6.9,-,N/A,,Overcast,20,2012-11-19 01:35:00
8:55 PM,59.0,44.6,59,30.31,10.0,NNE,6.9,-,N/A,,Overcast,30,2012-11-19 01:55:00
9:15 PM,59.0,42.8,55,30.31,10.0,NE,8.1,-,N/A,,Overcast,40,2012-11-19 02:15:00
9:35 PM,57.2,42.8,59,30.31,10.0,NNE,5.8,-,N/A,,Scattered Clouds,30,2012-11-19 02:35:00
9:55 PM,55.4,42.8,63,30.31,10.0,North,3.5,-,N/A,,Mostly Cloudy,10,2012-11-19 02:55:00
10:15 PM,55.4,42.8,63,30.31,10.0,North,4.6,-,N/A,,Mostly Cloudy,350,2012-11-19 03:15:00
10:35 PM,53.6,42.8,67,30.30,10.0,Calm,Calm,-,N/A,,Mostly Cloudy,0,2012-11-19 03:35:00
10:55 PM,53.6,42.8,67,30.30,10.0,Calm,Calm,-,N/A,,Overcast,0,2012-11-19 03:55:00
11:15 PM,53.6,42.8,67,30.30,10.0,NNW,3.5,-,N/A,,Overcast,340,2012-11-19 04:15:00
11:35 PM,53.6,42.8,67,30.29,10.0,North,3.5,-,N/A,,Mostly Cloudy,350,2012-11-19 04:35:00
11:55 PM,53.6,42.8,67,30.29,10.0,NNE,3.5,-,N/A,,Scattered Clouds,20,2012-11-19 04:55:00